| time (UTC) | temp F | wind direction | speed MPH | gust MPH | rain 1hr in | rain 24hr in | rain mn in | humidity % | barometer mb |
| 20260901104226 | 69 | 195 | 0.0 | 0.0 | 0.00 | 0.00 | 0.00 | 85 | 1016.1 |
| 20260901103725 | 69 | 174 | 0.0 | 0.0 | 0.00 | 0.00 | 0.00 | 85 | 1016.0 |
| 20260901103220 | 69 | 185 | 0.0 | 0.0 | 0.00 | 0.00 | 0.00 | 84 | 1015.9 |
| 20260901102715 | 70 | 216 | 0.0 | 0.0 | 0.00 | 0.00 | 0.00 | 84 | 1015.8 |
| 20260901102215 | 70 | 220 | 0.0 | 0.0 | 0.00 | 0.00 | 0.00 | 84 | 1015.9 |
| 20260901101711 | 70 | 216 | 0.0 | 0.0 | 0.00 | 0.00 | 0.00 | 84 | 1015.7 |
| 20260901101210 | 70 | 192 | 0.0 | 0.0 | 0.00 | 0.00 | 0.00 | 84 | 1015.7 |
| 20260901100705 | 70 | 184 | 0.0 | 0.0 | 0.00 | 0.00 | 0.00 | 84 | 1015.8 |
| 20260901100200 | 70 | 169 | 0.0 | 0.0 | 0.00 | 0.00 | 0.00 | 84 | 1015.8 |
| 20260901095658 | 70 | 151 | 1.0 | 1.0 | 0.00 | 0.00 | 0.00 | 84 | 1015.8 |
| 20260901095156 | 70 | 184 | 0.0 | 0.0 | 0.00 | 0.00 | 0.00 | 84 | 1015.7 |
| 20260901094651 | 70 | 172 | 0.0 | 0.0 | 0.00 | 0.00 | 0.00 | 84 | 1015.7 |
| 20260901094150 | 70 | 152 | 1.0 | 2.0 | 0.00 | 0.00 | 0.00 | 84 | 1015.7 |
| 20260901093645 | 70 | 185 | 1.0 | 2.0 | 0.00 | 0.00 | 0.00 | 83 | 1015.6 |
| 20260901093144 | 70 | 172 | 2.0 | 2.0 | 0.00 | 0.00 | 0.00 | 83 | 1015.5 |
| 20260901092640 | 71 | 220 | 2.0 | 3.0 | 0.00 | 0.00 | 0.00 | 83 | 1015.7 |
| 20260901092137 | 71 | 202 | 3.0 | 5.0 | 0.00 | 0.00 | 0.00 | 83 | 1015.8 |
| 20260901091632 | 71 | 213 | 3.0 | 3.0 | 0.00 | 0.00 | 0.00 | 83 | 1015.8 |
| 20260901091126 | 71 | 196 | 1.0 | 2.0 | 0.00 | 0.00 | 0.00 | 82 | 1015.7 |
| 20260901090621 | 71 | 202 | 2.0 | 2.0 | 0.00 | 0.00 | 0.00 | 81 | 1015.9 |
| 20260901090117 | 71 | 213 | 2.0 | 3.0 | 0.00 | 0.00 | 0.00 | 81 | 1015.7 |
| 20260901085612 | 71 | 186 | 4.0 | 5.0 | 0.00 | 0.00 | 0.00 | 81 | 1015.7 |
| 20260901085108 | 71 | 199 | 4.0 | 7.0 | 0.00 | 0.00 | 0.00 | 82 | 1015.8 |
| 20260901084604 | 71 | 161 | 1.0 | 2.0 | 0.00 | 0.00 | 0.00 | 82 | 1015.8 |
| 20260901084100 | 70 | 194 | 3.0 | 5.0 | 0.00 | 0.00 | 0.00 | 83 | 1015.8 |
| 20260901083600 | 70 | 204 | 2.0 | 3.0 | 0.00 | 0.00 | 0.00 | 83 | 1016.0 |
| 20260901083058 | 71 | 214 | 1.0 | 2.0 | 0.00 | 0.00 | 0.00 | 84 | 1016.0 |
| 20260901082553 | 71 | 188 | 3.0 | 3.0 | 0.00 | 0.00 | 0.00 | 83 | 1015.7 |
| 20260901082049 | 71 | 189 | 0.0 | 0.0 | 0.00 | 0.00 | 0.00 | 83 | 1015.8 |
| 20260901081544 | 71 | 204 | 1.0 | 1.0 | 0.00 | 0.00 | 0.00 | 83 | 1015.9 |
| 20260901081044 | 71 | 177 | 1.0 | 2.0 | 0.00 | 0.00 | 0.00 | 83 | 1016.1 |
| 20260901080538 | 71 | 185 | 0.0 | 0.0 | 0.00 | 0.00 | 0.00 | 83 | 1016.1 |
| 20260901080037 | 71 | 189 | 0.0 | 0.0 | 0.00 | 0.00 | 0.00 | 82 | 1016.0 |
| 20260901075533 | 71 | 194 | 1.0 | 2.0 | 0.00 | 0.00 | 0.00 | 82 | 1016.0 |
| 20260901075032 | 71 | 199 | 2.0 | 2.0 | 0.00 | 0.00 | 0.00 | 83 | 1015.9 |
| 20260901074532 | 71 | 191 | 0.0 | 0.0 | 0.00 | 0.00 | 0.00 | 83 | 1016.2 |
| 20260901074027 | 71 | 193 | 0.0 | 0.0 | 0.00 | 0.00 | 0.00 | 82 | 1016.2 |
| 20260901073524 | 71 | 194 | 0.0 | 0.0 | 0.00 | 0.00 | 0.00 | 82 | 1015.9 |
| 20260901073019 | 72 | 187 | 1.0 | 1.0 | 0.00 | 0.00 | 0.00 | 82 | 1016.1 |
| 20260901072514 | 72 | 208 | 2.0 | 2.0 | 0.00 | 0.00 | 0.00 | 83 | 1016.0 |
| 20260901072009 | 72 | 202 | 1.0 | 1.0 | 0.00 | 0.00 | 0.00 | 83 | 1016.1 |
| 20260901071509 | 72 | 206 | 1.0 | 2.0 | 0.00 | 0.00 | 0.00 | 83 | 1015.9 |
| 20260901071007 | 72 | 184 | 0.0 | 0.0 | 0.00 | 0.00 | 0.00 | 82 | 1016.0 |
| 20260901070503 | 72 | 181 | 0.0 | 0.0 | 0.00 | 0.00 | 0.00 | 82 | 1016.3 |
| 20260901070002 | 72 | 187 | 0.0 | 0.0 | 0.00 | 0.42 | 0.42 | 82 | 1015.9 |
| 20260901065457 | 72 | 186 | 0.0 | 0.0 | 0.00 | 0.42 | 0.42 | 81 | 1015.9 |
| 20260901064952 | 72 | 193 | 0.0 | 0.0 | 0.00 | 0.42 | 0.42 | 81 | 1016.1 |
| 20260901064448 | 72 | 192 | 0.0 | 0.0 | 0.00 | 0.42 | 0.42 | 81 | 1016.3 |
| 20260901063945 | 72 | 194 | 0.0 | 0.0 | 0.00 | 0.42 | 0.42 | 81 | 1016.1 |
| 20260901063442 | 72 | 193 | 0.0 | 0.0 | 0.00 | 0.42 | 0.42 | 81 | 1016.2 |
| 20260901062937 | 72 | 182 | 0.0 | 0.0 | 0.00 | 0.42 | 0.42 | 81 | 1016.4 |
| 20260901062433 | 72 | 191 | 0.0 | 0.0 | 0.00 | 0.42 | 0.42 | 81 | 1016.6 |
| 20260901061929 | 72 | 192 | 0.0 | 0.0 | 0.00 | 0.42 | 0.42 | 81 | 1016.3 |
| 20260901061425 | 72 | 194 | 0.0 | 0.0 | 0.00 | 0.42 | 0.42 | 81 | 1016.3 |
| 20260901060919 | 72 | 188 | 0.0 | 0.0 | 0.00 | 0.42 | 0.42 | 81 | 1016.4 |
| 20260901060415 | 73 | 195 | 0.0 | 0.0 | 0.00 | 0.42 | 0.42 | 81 | 1016.3 |
| 20260901055914 | 73 | 199 | 1.0 | 2.0 | 0.00 | 0.42 | 0.42 | 81 | 1016.3 |
| 20260901055411 | 73 | 202 | 1.0 | 1.0 | 0.00 | 0.42 | 0.42 | 80 | 1016.0 |
| 20260901054907 | 73 | 220 | 1.0 | 1.0 | 0.00 | 0.42 | 0.42 | 79 | 1016.4 |
| 20260901054404 | 74 | 197 | 0.0 | 0.0 | 0.00 | 0.42 | 0.42 | 77 | 1016.1 |
| 20260901053859 | 74 | 140 | 0.0 | 1.0 | 0.00 | 0.42 | 0.42 | 77 | 1016.3 |
| 20260901053355 | 74 | 127 | 0.0 | 0.0 | 0.00 | 0.42 | 0.42 | 78 | 1016.2 |
| 20260901052851 | 73 | 184 | 0.0 | 0.0 | 0.00 | 0.42 | 0.42 | 78 | 1016.0 |
| 20260901052346 | 73 | 150 | 0.0 | 0.0 | 0.00 | 0.42 | 0.42 | 78 | 1016.1 |
| 20260901051844 | 73 | 147 | 0.0 | 0.0 | 0.00 | 0.42 | 0.42 | 78 | 1015.9 |
| 20260901051340 | 74 | 147 | 0.0 | 0.0 | 0.00 | 0.42 | 0.42 | 77 | 1016.2 |
| 20260901050835 | 74 | 146 | 0.0 | 0.0 | 0.00 | 0.42 | 0.42 | 76 | 1016.3 |
| 20260901050330 | 74 | 116 | 1.0 | 1.0 | 0.00 | 0.42 | 0.42 | 76 | 1016.3 |
| 20260901045825 | 74 | 172 | 0.0 | 0.0 | 0.00 | 0.42 | 0.42 | 76 | 1016.1 |
| 20260901045324 | 75 | 161 | 0.0 | 0.0 | 0.00 | 0.42 | 0.42 | 76 | 1016.3 |
| 20260901044820 | 74 | 113 | 1.0 | 2.0 | 0.00 | 0.42 | 0.42 | 76 | 1016.4 |
| 20260901044316 | 74 | 200 | 0.0 | 0.0 | 0.00 | 0.42 | 0.42 | 77 | 1016.2 |
| 20260901043812 | 74 | 199 | 0.0 | 0.0 | 0.00 | 0.42 | 0.42 | 77 | 1016.1 |
| 20260901043308 | 74 | 193 | 1.0 | 1.0 | 0.00 | 0.42 | 0.42 | 77 | 1016.0 |
| 20260901042806 | 75 | 230 | 0.0 | 1.0 | 0.00 | 0.42 | 0.42 | 76 | 1016.3 |
| 20260901042305 | 75 | 198 | 1.0 | 2.0 | 0.00 | 0.42 | 0.42 | 77 | 1016.2 |
| 20260901041757 | 75 | 170 | 0.0 | 0.0 | 0.00 | 0.42 | 0.42 | 76 | 1016.3 |
| 20260901041252 | 75 | 186 | 0.0 | 0.0 | 0.00 | 0.42 | 0.42 | 75 | 1016.3 |
| 20260901040747 | 75 | 181 | 1.0 | 1.0 | 0.00 | 0.42 | 0.42 | 75 | 1016.3 |
| 20260901040246 | 75 | 203 | 3.0 | 3.0 | 0.00 | 0.42 | 0.42 | 75 | 1016.3 |
| 20260901035745 | 76 | 201 | 4.0 | 5.0 | 0.00 | 0.42 | 0.42 | 74 | 1016.0 |
| 20260901035244 | 76 | 196 | 2.0 | 3.0 | 0.00 | 0.42 | 0.42 | 74 | 1016.0 |
| 20260901034743 | 76 | 179 | 0.0 | 1.0 | 0.00 | 0.42 | 0.42 | 73 | 1016.2 |
| 20260901034238 | 76 | 181 | 0.0 | 0.0 | 0.00 | 0.42 | 0.42 | 73 | 1016.1 |
| 20260901033737 | 76 | 191 | 0.0 | 0.0 | 0.00 | 0.42 | 0.42 | 73 | 1016.0 |
| 20260901033237 | 76 | 182 | 0.0 | 1.0 | 0.00 | 0.42 | 0.42 | 73 | 1016.1 |
| 20260901032736 | 76 | 174 | 1.0 | 1.0 | 0.00 | 0.42 | 0.42 | 72 | 1015.9 |
| 20260901032235 | 76 | 128 | 0.0 | 1.0 | 0.00 | 0.42 | 0.42 | 71 | 1015.9 |
| 20260901031726 | 77 | 88 | 0.0 | 1.0 | 0.00 | 0.42 | 0.42 | 71 | 1016.0 |
| 20260901031222 | 77 | 114 | 1.0 | 1.0 | 0.00 | 0.42 | 0.42 | 70 | 1015.9 |
| 20260901030722 | 77 | 187 | 0.0 | 1.0 | 0.00 | 0.42 | 0.42 | 70 | 1015.7 |
| 20260901030217 | 77 | 207 | 1.0 | 1.0 | 0.00 | 0.42 | 0.42 | 67 | 1015.4 |
| 20260901025711 | 77 | 117 | 3.0 | 5.0 | 0.00 | 0.42 | 0.42 | 67 | 1015.5 |
| 20260901025211 | 77 | 157 | 1.0 | 1.0 | 0.00 | 0.42 | 0.42 | 68 | 1015.3 |
| 20260901024706 | 77 | 165 | 1.0 | 2.0 | 0.00 | 0.42 | 0.42 | 69 | 1015.4 |
| 20260901024205 | 77 | 129 | 3.0 | 3.0 | 0.00 | 0.42 | 0.42 | 69 | 1015.3 |
| 20260901023703 | 77 | 126 | 0.0 | 1.0 | 0.00 | 0.42 | 0.42 | 70 | 1015.3 |
| 20260901023158 | 77 | 188 | 1.0 | 2.0 | 0.00 | 0.42 | 0.42 | 70 | 1015.4 |
| 20260901022654 | 77 | 117 | 2.0 | 2.0 | 0.00 | 0.42 | 0.42 | 69 | 1015.0 |
| 20260901022148 | 77 | 157 | 0.0 | 1.0 | 0.00 | 0.42 | 0.42 | 70 | 1014.9 |
| 20260901021644 | 77 | 184 | 0.0 | 0.0 | 0.00 | 0.42 | 0.42 | 71 | 1015.0 |
| 20260901021139 | 77 | 187 | 0.0 | 0.0 | 0.00 | 0.42 | 0.42 | 70 | 1014.8 |
| 20260901020635 | 77 | 173 | 1.0 | 1.0 | 0.00 | 0.42 | 0.42 | 70 | 1014.7 |
| 20260901020130 | 78 | 181 | 0.0 | 0.0 | 0.00 | 0.42 | 0.42 | 68 | 1014.7 |
| 20260901015626 | 78 | 149 | 2.0 | 2.0 | 0.00 | 0.42 | 0.42 | 68 | 1014.8 |
| 20260901015125 | 78 | 182 | 1.0 | 1.0 | 0.00 | 0.42 | 0.42 | 69 | 1014.6 |
| 20260901014620 | 78 | 125 | 1.0 | 1.0 | 0.00 | 0.42 | 0.42 | 69 | 1014.3 |
| 20260901014116 | 78 | 127 | 0.0 | 1.0 | 0.00 | 0.42 | 0.42 | 70 | 1014.4 |
| 20260901013612 | 78 | 162 | 1.0 | 1.0 | 0.00 | 0.42 | 0.42 | 70 | 1014.4 |
| 20260901013107 | 78 | 143 | 1.0 | 1.0 | 0.00 | 0.42 | 0.42 | 71 | 1014.1 |
| 20260901012602 | 78 | 169 | 0.0 | 0.0 | 0.00 | 0.42 | 0.42 | 70 | 1014.1 |
| 20260901012057 | 78 | 174 | 0.0 | 0.0 | 0.00 | 0.42 | 0.42 | 70 | 1014.2 |
| 20260901011553 | 78 | 162 | 0.0 | 1.0 | 0.00 | 0.42 | 0.42 | 70 | 1014.1 |
| 20260901011050 | 78 | 203 | 0.0 | 0.0 | 0.00 | 0.42 | 0.42 | 71 | 1014.1 |
| 20260901010546 | 78 | 195 | 1.0 | 1.0 | 0.00 | 0.42 | 0.42 | 71 | 1014.2 |
| 20260901010045 | 78 | 206 | 1.0 | 2.0 | 0.00 | 0.42 | 0.42 | 70 | 1014.0 |
| 20260901005540 | 78 | 183 | 0.0 | 0.0 | 0.00 | 0.42 | 0.42 | 69 | 1014.2 |
| 20260901005036 | 78 | 196 | 0.0 | 0.0 | 0.00 | 0.42 | 0.42 | 69 | 1014.0 |
| 20260901004535 | 78 | 141 | 1.0 | 1.0 | 0.00 | 0.42 | 0.42 | 67 | 1013.8 |
| 20260901004030 | 79 | 163 | 0.0 | 1.0 | 0.00 | 0.42 | 0.42 | 66 | 1013.8 |
| 20260901003525 | 79 | 165 | 1.0 | 1.0 | 0.00 | 0.42 | 0.42 | 65 | 1014.3 |
| 20260901003023 | 79 | 68 | 1.0 | 1.0 | 0.00 | 0.42 | 0.42 | 66 | 1014.0 |
| 20260901002523 | 79 | 179 | 1.0 | 1.0 | 0.00 | 0.42 | 0.42 | 65 | 1014.2 |
| 20260901002018 | 79 | 203 | 0.0 | 0.0 | 0.00 | 0.42 | 0.42 | 64 | 1014.2 |
| 20260901001513 | 79 | 204 | 0.0 | 0.0 | 0.00 | 0.42 | 0.42 | 64 | 1014.1 |
| 20260901001009 | 79 | 178 | 0.0 | 0.0 | 0.00 | 0.42 | 0.42 | 65 | 1013.8 |
| 20260901000508 | 79 | 143 | 1.0 | 2.0 | 0.00 | 0.42 | 0.42 | 63 | 1014.3 |
| 20260901000003 | 80 | 151 | 2.0 | 2.0 | 0.00 | 0.42 | 0.42 | 63 | 1014.3 |
| 20260831235457 | 79 | 242 | 0.0 | 1.0 | 0.00 | 0.42 | 0.42 | 63 | 1014.2 |
| 20260831234953 | 79 | 216 | 3.0 | 3.0 | 0.00 | 0.42 | 0.42 | 64 | 1014.3 |
| 20260831234447 | 80 | 206 | 5.0 | 7.0 | 0.00 | 0.42 | 0.42 | 62 | 1014.2 |
| 20260831233942 | 80 | 179 | 0.0 | 1.0 | 0.00 | 0.42 | 0.42 | 61 | 1014.4 |
| 20260831233437 | 79 | 139 | 1.0 | 1.0 | 0.00 | 0.42 | 0.42 | 61 | 1014.5 |
| 20260831232933 | 79 | 127 | 0.0 | 1.0 | 0.00 | 0.42 | 0.42 | 62 | 1014.4 |
| 20260831232429 | 79 | 127 | 0.0 | 1.0 | 0.00 | 0.42 | 0.42 | 62 | 1014.4 |
| 20260831231924 | 79 | 293 | 1.0 | 1.0 | 0.00 | 0.42 | 0.42 | 61 | 1014.5 |
| 20260831231421 | 79 | 240 | 0.0 | 1.0 | 0.00 | 0.42 | 0.42 | 66 | 1014.5 |
| 20260831230916 | 77 | 119 | 4.0 | 5.0 | 0.00 | 0.42 | 0.42 | 66 | 1014.5 |
| 20260831230411 | 77 | 127 | 1.0 | 2.0 | 0.00 | 0.42 | 0.42 | 68 | 1014.6 |
| 20260831225905 | 77 | 95 | 3.0 | 3.0 | 0.00 | 0.42 | 0.42 | 70 | 1014.8 |
| 20260831225401 | 77 | 41 | 4.0 | 6.0 | 0.00 | 0.42 | 0.42 | 70 | 1014.8 |
| 20260831224855 | 76 | 126 | 5.0 | 7.0 | 0.00 | 0.42 | 0.42 | 75 | 1014.8 |
| 20260831224350 | 76 | 130 | 3.0 | 3.0 | 0.00 | 0.42 | 0.42 | 77 | 1015.0 |
| 20260831223850 | 76 | 129 | 2.0 | 2.0 | 0.00 | 0.42 | 0.42 | 77 | 1015.1 |
| 20260831223346 | 76 | 143 | 1.0 | 2.0 | 0.00 | 0.42 | 0.42 | 77 | 1014.8 |
| 20260831222843 | 75 | 200 | 2.0 | 5.0 | 0.00 | 0.42 | 0.42 | 78 | 1014.9 |
| 20260831222338 | 75 | 161 | 2.0 | 2.0 | 0.00 | 0.42 | 0.42 | 78 | 1014.9 |
| 20260831221833 | 75 | 201 | 1.0 | 2.0 | 0.00 | 0.42 | 0.42 | 79 | 1015.4 |
| 20260831221329 | 74 | 172 | 1.0 | 1.0 | 0.00 | 0.42 | 0.42 | 78 | 1015.1 |
| 20260831220824 | 73 | 70 | 5.0 | 7.0 | 0.00 | 0.42 | 0.42 | 77 | 1015.5 |
| 20260831220319 | 73 | 89 | 7.0 | 9.0 | 0.00 | 0.42 | 0.42 | 78 | 1015.7 |
| 20260831215814 | 74 | 106 | 8.0 | 15.0 | 0.00 | 0.42 | 0.42 | 77 | 1015.7 |
| 20260831215310 | 73 | 97 | 5.0 | 8.0 | 0.00 | 0.42 | 0.42 | 78 | 1015.9 |
| 20260831214807 | 72 | 77 | 5.0 | 9.0 | 0.00 | 0.42 | 0.42 | 79 | 1015.9 |
| 20260831214304 | 72 | 84 | 4.0 | 7.0 | 0.00 | 0.42 | 0.42 | 80 | 1016.0 |
| 20260831213759 | 71 | 86 | 6.0 | 10.0 | 0.00 | 0.42 | 0.42 | 79 | 1015.9 |
| 20260831213255 | 70 | 51 | 8.0 | 9.0 | 0.00 | 0.42 | 0.42 | 82 | 1016.1 |
| 20260831212750 | 70 | 88 | 5.0 | 8.0 | 0.00 | 0.42 | 0.42 | 85 | 1016.6 |
| 20260831212247 | 69 | 356 | 3.0 | 3.0 | 0.00 | 0.42 | 0.42 | 86 | 1016.8 |
| 20260831211744 | 69 | 0 | 4.0 | 5.0 | 0.00 | 0.42 | 0.42 | 86 | 1016.7 |
| 20260831211240 | 69 | 102 | 12.0 | 14.0 | 0.00 | 0.42 | 0.42 | 87 | 1016.4 |
| 20260831210735 | 69 | 48 | 8.0 | 10.0 | 0.00 | 0.42 | 0.42 | 88 | 1016.3 |
| 20260831210231 | 69 | 80 | 8.0 | 11.0 | 0.07 | 0.42 | 0.42 | 89 | 1017.0 |
| 20260831205730 | 70 | 48 | 3.0 | 6.0 | 0.12 | 0.42 | 0.42 | 89 | 1016.9 |
| 20260831205226 | 69 | 70 | 5.0 | 8.0 | 0.12 | 0.41 | 0.41 | 89 | 1017.3 |
| 20260831204720 | 69 | 52 | 5.0 | 7.0 | 0.14 | 0.40 | 0.40 | 89 | 1017.9 |
| 20260831204220 | 69 | 33 | 6.0 | 8.0 | 0.12 | 0.39 | 0.39 | 89 | 1018.1 |
| 20260831203714 | 69 | 83 | 7.0 | 9.0 | 0.05 | 0.38 | 0.38 | 89 | 1018.2 |
| 20260831203213 | 69 | 66 | 5.0 | 7.0 | 0.07 | 0.37 | 0.37 | 89 | 1018.4 |
| 20260831202712 | 69 | 49 | 4.0 | 5.0 | 0.12 | 0.37 | 0.37 | 89 | 1018.7 |
| 20260831202207 | 69 | 53 | 4.0 | 6.0 | 0.12 | 0.36 | 0.36 | 89 | 1018.5 |
| 20260831201706 | 69 | 70 | 4.0 | 6.0 | 0.17 | 0.36 | 0.36 | 89 | 1018.7 |
| 20260831201201 | 69 | 149 | 2.0 | 2.0 | 0.17 | 0.34 | 0.34 | 89 | 1019.2 |
| 20260831200657 | 69 | 113 | 1.0 | 2.0 | 0.19 | 0.33 | 0.33 | 89 | 1019.4 |
| 20260831200156 | 68 | 149 | 1.0 | 2.0 | 0.19 | 0.31 | 0.31 | 89 | 1019.6 |
| 20260831195652 | 68 | 155 | 1.0 | 1.0 | 0.17 | 0.30 | 0.30 | 89 | 1019.7 |
| 20260831195147 | 68 | 203 | 1.0 | 1.0 | 0.12 | 0.28 | 0.28 | 88 | 1019.9 |
| 20260831194642 | 68 | 80 | 2.0 | 2.0 | 0.19 | 0.27 | 0.27 | 88 | 1019.6 |
| 20260831194138 | 68 | 69 | 2.0 | 2.0 | 0.47 | 0.26 | 0.26 | 87 | 1019.8 |
| 20260831193632 | 69 | 85 | 1.0 | 2.0 | 1.02 | 0.24 | 0.24 | 87 | 1019.9 |
| 20260831193127 | 69 | 162 | 2.0 | 2.0 | 1.02 | 0.21 | 0.21 | 86 | 1019.9 |
| 20260831192622 | 69 | 215 | 1.0 | 2.0 | 0.31 | 0.09 | 0.09 | 84 | 1020.2 |
| 20260831192118 | 69 | 220 | 2.0 | 2.0 | 0.00 | 0.04 | 0.04 | 84 | 1020.3 |
| 20260831191614 | 69 | 208 | 2.0 | 2.0 | 0.00 | 0.04 | 0.04 | 84 | 1020.3 |
| 20260831191109 | 69 | 270 | 3.0 | 3.0 | 0.05 | 0.04 | 0.04 | 84 | 1020.0 |
| 20260831190604 | 69 | 282 | 4.0 | 5.0 | 0.05 | 0.04 | 0.04 | 83 | 1019.9 |
| 20260831185559 | 69 | 346 | 3.0 | 6.0 | 0.00 | 0.03 | 0.03 | 84 | 1019.4 |
| 20260831185054 | 69 | 10 | 6.0 | 8.0 | 0.00 | 0.03 | 0.03 | 85 | 1019.4 |
| 20260831184548 | 69 | 332 | 5.0 | 6.0 | 0.00 | 0.03 | 0.03 | 84 | 1019.4 |
| 20260831184044 | 69 | 296 | 7.0 | 11.0 | 0.00 | 0.03 | 0.03 | 83 | 1019.0 |
| 20260831183543 | 70 | 344 | 7.0 | 8.0 | 0.00 | 0.03 | 0.03 | 81 | 1018.8 |
| 20260831183042 | 71 | 344 | 9.0 | 13.0 | 0.00 | 0.03 | 0.03 | 78 | 1018.7 |
| 20260831182537 | 71 | 247 | 10.0 | 13.0 | 0.00 | 0.03 | 0.03 | 78 | 1019.2 |
| 20260831182032 | 70 | 285 | 15.0 | 17.0 | 0.00 | 0.03 | 0.03 | 79 | 1018.9 |
| 20260831181527 | 71 | 275 | 13.0 | 16.0 | 0.00 | 0.03 | 0.03 | 79 | 1019.4 |
| 20260831181026 | 72 | 273 | 9.0 | 13.0 | 0.00 | 0.03 | 0.03 | 78 | 1019.0 |
| 20260831180521 | 72 | 313 | 8.0 | 10.0 | 0.00 | 0.03 | 0.03 | 77 | 1018.7 |
| 20260831180016 | 73 | 299 | 8.0 | 8.0 | 0.00 | 0.03 | 0.03 | 75 | 1018.7 |
| 20260831175512 | 73 | 264 | 9.0 | 10.0 | 0.00 | 0.03 | 0.03 | 75 | 1018.7 |
| 20260831175009 | 73 | 318 | 8.0 | 10.0 | 0.00 | 0.03 | 0.03 | 74 | 1019.0 |
| 20260831174508 | 74 | 324 | 7.0 | 8.0 | 0.00 | 0.03 | 0.03 | 73 | 1018.8 |
| 20260831174003 | 74 | 302 | 12.0 | 14.0 | 0.00 | 0.03 | 0.03 | 73 | 1018.7 |
| 20260831173501 | 75 | 315 | 10.0 | 14.0 | 0.00 | 0.03 | 0.03 | 75 | 1018.6 |
| 20260831172957 | 76 | 174 | 11.0 | 14.0 | 0.00 | 0.03 | 0.03 | 72 | 1018.3 |
| 20260831172452 | 77 | 353 | 8.0 | 10.0 | 0.00 | 0.03 | 0.03 | 68 | 1018.4 |
| 20260831171947 | 78 | 315 | 7.0 | 8.0 | 0.00 | 0.03 | 0.03 | 67 | 1018.5 |
| 20260831171442 | 78 | 324 | 8.0 | 11.0 | 0.00 | 0.03 | 0.03 | 64 | 1018.2 |
| 20260831170939 | 77 | 310 | 4.0 | 5.0 | 0.00 | 0.03 | 0.03 | 68 | 1018.2 |
| 20260831170430 | 77 | 301 | 6.0 | 8.0 | 0.00 | 0.03 | 0.03 | 71 | 1018.0 |
| 20260831165927 | 77 | 307 | 8.0 | 9.0 | 0.00 | 0.03 | 0.03 | 69 | 1017.7 |
| 20260831165422 | 77 | 335 | 10.0 | 14.0 | 0.00 | 0.03 | 0.03 | 71 | 1017.7 |
| 20260831164918 | 79 | 238 | 7.0 | 8.0 | 0.00 | 0.03 | 0.03 | 69 | 1017.6 |
| 20260831164415 | 80 | 334 | 5.0 | 6.0 | 0.00 | 0.03 | 0.03 | 60 | 1017.4 |
| 20260831163909 | 80 | 12 | 5.0 | 6.0 | 0.00 | 0.03 | 0.03 | 61 | 1017.3 |
| 20260831163405 | 80 | 315 | 6.0 | 7.0 | 0.00 | 0.03 | 0.03 | 60 | 1017.1 |
| 20260831162903 | 81 | 33 | 7.0 | 8.0 | 0.00 | 0.03 | 0.03 | 53 | 1017.1 |
| 20260831162359 | 82 | 31 | 4.0 | 5.0 | 0.00 | 0.03 | 0.03 | 53 | 1016.9 |
| 20260831161857 | 82 | 85 | 5.0 | 6.0 | 0.00 | 0.03 | 0.03 | 53 | 1017.0 |
| 20260831161354 | 82 | 87 | 3.0 | 6.0 | 0.00 | 0.03 | 0.03 | 52 | 1016.8 |
| 20260831160849 | 81 | 115 | 6.0 | 7.0 | 0.00 | 0.03 | 0.03 | 54 | 1016.6 |
| 20260831160344 | 80 | 130 | 5.0 | 6.0 | 0.00 | 0.03 | 0.03 | 55 | 1016.8 |
| 20260831155839 | 79 | 63 | 2.0 | 2.0 | 0.00 | 0.03 | 0.03 | 60 | 1016.8 |
| 20260831155338 | 79 | 22 | 5.0 | 6.0 | 0.00 | 0.03 | 0.03 | 67 | 1016.8 |
| 20260831154834 | 80 | 135 | 4.0 | 6.0 | 0.00 | 0.03 | 0.03 | 66 | 1016.8 |
| 20260831154331 | 79 | 194 | 2.0 | 3.0 | 0.00 | 0.03 | 0.03 | 68 | 1016.7 |
| 20260831153829 | 78 | 159 | 2.0 | 3.0 | 0.00 | 0.03 | 0.03 | 70 | 1016.4 |
| 20260831153325 | 77 | 80 | 2.0 | 2.0 | 0.00 | 0.03 | 0.03 | 73 | 1016.9 |
| 20260831152821 | 78 | 132 | 4.0 | 6.0 | 0.00 | 0.03 | 0.03 | 72 | 1016.8 |
| 20260831152316 | 77 | 198 | 4.0 | 5.0 | 0.00 | 0.03 | 0.03 | 74 | 1017.0 |
| 20260831151812 | 75 | 141 | 3.0 | 5.0 | 0.00 | 0.03 | 0.03 | 77 | 1017.0 |
| 20260831151310 | 74 | 197 | 2.0 | 2.0 | 0.00 | 0.03 | 0.03 | 79 | 1017.1 |
| 20260831150806 | 74 | 198 | 5.0 | 6.0 | 0.00 | 0.03 | 0.03 | 79 | 1017.0 |
| 20260831150301 | 73 | 240 | 3.0 | 6.0 | 0.00 | 0.03 | 0.03 | 79 | 1016.9 |
| 20260831145800 | 74 | 177 | 4.0 | 6.0 | 0.00 | 0.03 | 0.03 | 79 | 1016.7 |
| 20260831145256 | 73 | 185 | 2.0 | 3.0 | 0.00 | 0.03 | 0.03 | 81 | 1016.6 |
| 20260831144752 | 73 | 201 | 6.0 | 7.0 | 0.00 | 0.03 | 0.03 | 81 | 1016.4 |
| 20260831144249 | 72 | 194 | 4.0 | 5.0 | 0.00 | 0.03 | 0.03 | 83 | 1016.3 |
| 20260831143748 | 72 | 209 | 4.0 | 5.0 | 0.00 | 0.03 | 0.03 | 83 | 1016.1 |
| 20260831143243 | 72 | 196 | 7.0 | 8.0 | 0.00 | 0.03 | 0.03 | 83 | 1016.0 |
| 20260831142739 | 71 | 213 | 7.0 | 8.0 | 0.00 | 0.03 | 0.03 | 84 | 1016.1 |
| 20260831142234 | 71 | 194 | 4.0 | 5.0 | 0.00 | 0.03 | 0.03 | 85 | 1016.3 |
| 20260831141733 | 71 | 198 | 6.0 | 7.0 | 0.00 | 0.03 | 0.03 | 86 | 1016.2 |
| 20260831141228 | 71 | 224 | 5.0 | 6.0 | 0.00 | 0.03 | 0.03 | 87 | 1016.3 |
| 20260831140728 | 70 | 145 | 2.0 | 2.0 | 0.00 | 0.03 | 0.03 | 87 | 1016.2 |
| 20260831140223 | 70 | 116 | 2.0 | 2.0 | 0.00 | 0.03 | 0.03 | 88 | 1016.2 |
| 20260831135721 | 70 | 115 | 1.0 | 2.0 | 0.00 | 0.03 | 0.03 | 88 | 1016.0 |
| 20260831135217 | 70 | 200 | 0.0 | 1.0 | 0.00 | 0.03 | 0.03 | 88 | 1016.1 |
| 20260831134712 | 69 | 151 | 1.0 | 3.0 | 0.00 | 0.03 | 0.03 | 88 | 1016.0 |
| 20260831134208 | 69 | 116 | 3.0 | 3.0 | 0.00 | 0.03 | 0.03 | 89 | 1016.0 |
| 20260831133707 | 69 | 152 | 1.0 | 1.0 | 0.00 | 0.03 | 0.03 | 89 | 1016.2 |
| 20260831133201 | 69 | 185 | 0.0 | 0.0 | 0.00 | 0.03 | 0.03 | 89 | 1016.3 |
| 20260831132657 | 69 | 222 | 2.0 | 2.0 | 0.00 | 0.03 | 0.03 | 89 | 1016.2 |
| 20260831132156 | 68 | 212 | 0.0 | 0.0 | 0.00 | 0.03 | 0.03 | 89 | 1016.3 |
| 20260831131651 | 68 | 27 | 2.0 | 2.0 | 0.00 | 0.03 | 0.03 | 89 | 1016.1 |
| 20260831131148 | 68 | 150 | 1.0 | 1.0 | 0.00 | 0.03 | 0.03 | 89 | 1016.2 |
| 20260831130643 | 68 | 233 | 0.0 | 1.0 | 0.00 | 0.03 | 0.03 | 89 | 1016.4 |
| 20260831130138 | 68 | 346 | 2.0 | 2.0 | 0.00 | 0.03 | 0.03 | 89 | 1016.1 |
| 20260831125636 | 68 | 15 | 4.0 | 7.0 | 0.00 | 0.03 | 0.03 | 89 | 1016.2 |
| 20260831125133 | 68 | 22 | 6.0 | 7.0 | 0.00 | 0.03 | 0.03 | 89 | 1016.4 |
| 20260831124628 | 68 | 3 | 6.0 | 7.0 | 0.00 | 0.03 | 0.03 | 88 | 1016.4 |
| 20260831124124 | 69 | 46 | 3.0 | 6.0 | 0.00 | 0.03 | 0.03 | 88 | 1016.4 |
| 20260831123624 | 69 | 329 | 5.0 | 6.0 | 0.07 | 0.03 | 0.03 | 87 | 1016.9 |
| 20260831123123 | 69 | 347 | 5.0 | 7.0 | 0.14 | 0.03 | 0.03 | 87 | 1016.8 |
| 20260831122622 | 69 | 317 | 6.0 | 7.0 | 0.12 | 0.02 | 0.02 | 86 | 1016.9 |
| 20260831122119 | 70 | 330 | 7.0 | 8.0 | 0.05 | 0.01 | 0.01 | 85 | 1016.9 |
| 20260831121617 | 71 | 340 | 4.0 | 5.0 | 0.00 | 0.00 | 0.00 | 84 | 1016.7 |
| 20260831121114 | 71 | 337 | 4.0 | 6.0 | 0.00 | 0.00 | 0.00 | 83 | 1016.7 |
| 20260831120609 | 72 | 326 | 7.0 | 9.0 | 0.00 | 0.00 | 0.00 | 81 | 1016.6 |
| 20260831120104 | 72 | 325 | 3.0 | 3.0 | 0.00 | 0.00 | 0.00 | 80 | 1016.7 |
| 20260831115600 | 72 | 251 | 6.0 | 7.0 | 0.00 | 0.00 | 0.00 | 80 | 1016.1 |
| 20260831115055 | 72 | 276 | 5.0 | 6.0 | 0.00 | 0.00 | 0.00 | 80 | 1016.2 |
| 20260831114554 | 72 | 281 | 13.0 | 16.0 | 0.00 | 0.00 | 0.00 | 80 | 1016.0 |
| 20260831114049 | 72 | 313 | 11.0 | 13.0 | 0.00 | 0.00 | 0.00 | 79 | 1015.8 |
| 20260831113548 | 73 | 257 | 11.0 | 13.0 | 0.00 | 0.00 | 0.00 | 79 | 1015.5 |
| 20260831113044 | 73 | 302 | 15.0 | 21.0 | 0.00 | 0.00 | 0.00 | 76 | 1015.5 |
| 20260831112543 | 75 | 295 | 12.0 | 14.0 | 0.00 | 0.00 | 0.00 | 75 | 1015.4 |
| 20260831112038 | 76 | 278 | 11.0 | 16.0 | 0.00 | 0.00 | 0.00 | 69 | 1015.3 |
| 20260831111534 | 78 | 271 | 18.0 | 20.0 | 0.00 | 0.00 | 0.00 | 64 | 1015.1 |
| 20260831111030 | 82 | 231 | 10.0 | 11.0 | 0.00 | 0.00 | 0.00 | 52 | 1014.6 |
| 20260831110525 | 81 | 238 | 5.0 | 6.0 | 0.00 | 0.00 | 0.00 | 52 | 1014.5 |
| 20260831110020 | 81 | 210 | 4.0 | 5.0 | 0.00 | 0.00 | 0.00 | 53 | 1014.3 |
| 20260831105520 | 81 | 221 | 3.0 | 3.0 | 0.00 | 0.00 | 0.00 | 53 | 1014.1 |
| 20260831105015 | 81 | 251 | 2.0 | 2.0 | 0.00 | 0.00 | 0.00 | 53 | 1014.1 |